Weather Roundup
Issued by NWS Chicago, IL

Home | Current Version | Previous Version | Graphics & Text | Print | Product List | Glossary On
Versions: 1 2 3 4 5 6 7 8 9 10 11 12 13 14 15 16 17 18 19 20 21 22 23 24 25 26 27 28 29 30 31 32 33 34 35 36 37 38 39 40 41 42 43 44 45 46 47 48 49 50
000
NZUS59 KLOT 200758
HRRLOT

CHICAGO AREA WEATHER ROUNDUP
NATIONAL WEATHER SERVICE CHICAGO/ROMEOVILLE IL
300 AM CDT SAT SEP 20 2014

NOTE: "FAIR" INDICATES FEW OR NO CLOUDS BELOW 12,000 FEET WITH NO
SIGNIFICANT WEATHER AND/OR OBSTRUCTIONS TO VISIBILITY.

* THESE STATIONS ARE NOT UNDER NWS QUALITY CONTROL. THEY ALSO MAY NOT
  REPORT WEATHER SUCH AS PRECIPITATION OR FOG.

ILZ005-006-012>014-019>023-200900-
NORTHEAST ILLINOIS

CITY           SKY/WX    TMP DP  RH WIND       PRES   REMARKS
OHARE          MOCLDY    63  51  65 SW13G22   29.92F
MIDWAY         MOCLDY    63  52  67 SW12      29.93F
AURORA         PTCLDY    55  50  83 SE3       29.95F
WAUKEGAN       PTCLDY    64  52  64 S18G28    29.87F
DUPAGE AIRPORT PTCLDY    59  51  75 S9        29.93F
WHEELING       PTCLDY    65  51  60 SW15G23   29.92F
NORTHERLY IS     N/A     64  50  60 S10         N/A
$$

WIZ051-052-058>065-066-070>072-200900-
SOUTHEAST WISCONSIN

CITY           SKY/WX    TMP DP  RH WIND       PRES   REMARKS
MILWAUKEE      MOCLDY    65  52  62 SW23G30   29.83F
KENOSHA*       PTCLDY    65  53  65 SW14G22   29.86F
RACINE*        PTCLDY    65  52  62 SW17G26   29.86F
$$

INZ001>003-010>013-019-020-200900-
NORTHWEST INDIANA

CITY           SKY/WX    TMP DP  RH WIND       PRES   REMARKS
GARY*          NOT AVBL
MICHIGAN CITY* NOT AVBL
RENSSELAER*    NOT AVBL
VALPARAISO     CLEAR     57  50  77 S7        29.99R
$$

LMZ740>746-200900-
SOUTHERN LAKE MICHIGAN

STATION/POSITION TIME  SKY/WX   TEMP WIND        PRES    VSBY
                                AIR  DIR/SP/G
                 (UTC)          (F)  (DEG/KT/KT) (MB)    (MI)
HARRISON CRIB    0700            65  200/ 19/ 23   N/A
BURNHAM HARBOR   0700            64  190/  9/ 14   N/A
CALUMET HARBOR   0700            64  190/ 12/ 15 1013.0R
BURNS HARBOR     NOT AVBL
MICHIGAN CITY    0700            61  170/ 12/ 15   N/A
$$

ABBREVIATIONS USED IN REMARKS
   TC - TEMPERATURE IN CELSIUS
  WCI - WIND CHILL INDEX
   HX - HEAT INDEX
  VSB - VISIBILITY
$$



USA.gov is the U.S. government's official web portal to all federal, state and local government web resources and services.